Location: *
(12.6133°S, 172.1169°E)
Time: 22:10:05
(UTC+00:00)

Daily predictions for brighter satellites

Satellite Brightness Start Highest point End
(mag) Time Altitude Azimuth Time Altitude Azimuth Time Altitude Azimuth
Cosmos 2227 Rocket 4.4 14:41:57 10° S 14:43:48 20° SSE 14:43:48 20° SSE
H-II Stage 2 4.4 14:53:26 81° NW 14:54:07 87° NNE 21:32:41 10° E
USA 215 4.4 14:59:27 10° SSE 15:03:41 34° SSW 15:03:41 34° SSW
Cosmos 2082 4.1 15:25:17 10° S 15:30:42 59° ESE 15:30:42 59° ESE
Atlas Centaur 2 4.0 15:34:07 16° S 15:34:07 16° S 15:36:07 10° SSE
CZ-3A R/B 3.0 15:37:35 37° ENE 15:37:35 37° ENE 15:43:42 10° ENE
ATLAS V CENTAUR R/B 4.1 15:37:20 62° ENE 15:37:20 62° ENE 15:50:47 10° ESE
Meteor 2-20 4.5 15:37:33 72° S 15:37:33 72° S 15:42:59 10° S
SL-16 R/B 3.7 15:32:06 10° S 15:35:47 30° SW 15:35:47 30° SW
H-2A R/B 3.9 15:34:12 10° S 15:36:18 27° S 15:36:18 27° S
ARIANE 5 R/B 4.3 14:24:43 10° WNW 15:45:50 52° N 15:52:19 10° ENE
Cosmos 2360 Rocket 3.2 15:46:25 32° NE 15:48:05 40° ENE 15:53:19 10° SE
ATLAS 2AS CENTAUR R/B 2.4 15:51:07 66° N 15:52:03 81° ENE 15:58:13 10° SSE
Cosmos 1805 Rocket 4.3 15:48:22 10° S 15:52:37 50° E 15:52:39 50° E
OAO 3 Rocket 3.6 15:54:37 57° ENE 15:54:37 57° ENE 15:58:56 10° ESE
Cosmos 1328 Rocket 4.1 15:56:57 53° ENE 15:57:09 53° E 16:01:27 10° SSE
CZ-4B R/B 3.7 15:55:36 10° SE 15:57:38 21° E 15:57:38 21° E
SL-08 R/B 4.0 15:53:57 10° S 15:57:19 43° SSW 15:57:19 43° SSW
IDEFIX/ARIANE 42P 3.2 16:03:21 40° SW 16:03:21 40° SW 16:06:57 10° SSW
Cosmos 2233 Rocket 3.9 15:56:12 10° S 16:02:30 83° W 16:05:04 39° N
Cosmos 1238 Rocket 3.9 15:59:43 10° SSW 16:06:15 62° W 16:07:16 55° NW
H-2A R/B 3.2 16:05:28 31° NE 16:06:58 48° ESE 16:10:44 10° S
Milstar 3 Cent rocket 3.8 15:59:56 35° WNW 16:07:06 76° SSW 16:14:50 10° ESE
Hubble Space Telescope 2.3 16:05:40 26° SSW 16:07:09 34° SSE 16:10:58 10° E
GPS 2-18 Rocket1 3.8 16:07:54 49° SSE 16:07:54 49° SSE 16:10:59 10° ESE
Cosmos 2322 Rocket 2.5 16:10:56 45° WSW 16:10:58 45° WSW 16:16:24 10° S
GPS 2-12 Rocket1 4.1 16:10:13 36° SW 16:11:15 40° S 16:15:48 10° ESE
MSX 3.7 16:09:51 38° N 16:12:09 71° WNW 16:17:56 10° SSW
SL-16 R/B 3.0 16:15:43 32° WSW 16:15:43 32° WSW 16:20:29 10° S
deb Centaur AC-2 4.1 16:14:42 47° SW 16:16:03 82° SSE 16:20:25 10° ENE
Landsat 5 3.8 16:12:27 10° S 16:16:10 50° SW 16:16:10 50° SW
PKM 4.3 16:13:33 10° SSW 16:20:50 89° WNW 16:24:23 10° NNE
Cosmos 1515 Rocket 3.9 16:18:52 28° NNE 16:21:05 63° E 16:25:30 10° SSE
Cosmos 2219 Rocket 4.2 16:22:41 10° NNE 16:27:12 25° ENE 16:31:44 10° SE
COSMOS 2455 4.1 16:26:58 23° WSW 16:27:16 23° WSW 16:31:53 10° SSW
Cosmos 374 Rocket 4.3 16:28:17 46° NNW 16:29:30 87° ENE 16:33:34 10° SSE
PAYLOAD A 3.9 16:27:17 21° N 16:30:38 62° WNW 16:35:35 10° SSW
Lacrosse 5 rocket 2.3 16:29:56 25° NNE 16:31:21 35° ENE 16:34:52 10° SE
ARIANE 5 R/B 4.0 16:28:55 29° WNW 16:32:21 44° N 16:36:13 10° ENE
Cosmos 2237 4.1 16:30:20 32° NNW 16:33:02 71° WSW 16:38:43 10° S
GPS 2-04 Rocket1 2.5 16:32:51 31° SW 16:34:32 86° SE 16:38:27 10° NE
Cosmos 1151 Rocket 3.2 16:34:29 43° WNW 16:34:56 44° W 16:39:02 10° SSW
Cosmos 1666 Rocket 3.5 16:32:20 10° S 16:36:51 88° W 16:41:17 10° N
CZ-3 R/B 4.0 16:00:37 10° WSW 16:44:02 67° SSE 16:53:16 10° E
SL-4 R/B 4.0 16:42:55 18° WSW 16:44:03 19° SW 16:47:25 10° S
COSMOS 2428 4.1 16:38:59 10° N 16:44:12 37° ENE 16:49:28 10° SE
Cosmos 1624 Rocket 3.9 16:38:56 10° SSW 16:44:12 87° WNW 16:49:28 10° N
Ariane H10 3.9 16:45:01 11° N 16:45:50 12° NNE 16:47:17 10° NE
Cosmos 2056 Rocket 3.4 16:43:45 10° SSW 16:49:00 80° WNW 16:54:08 10° N
Tsikada Rocket 3.9 16:43:25 10° N 16:49:35 88° W 16:55:47 10° S
STARLINK-46 4.3 16:50:00 20° SW 16:50:00 20° SW 16:51:59 10° S
Meteor PRIRODA 4.1 16:47:13 10° NNE 16:50:49 63° ESE 16:54:28 10° S
Cosmos 1782 4.5 16:47:36 10° NNE 16:51:12 34° E 16:54:51 10° SSE
Cosmos 1464 Rocket 4.0 16:49:24 10° S 16:55:47 81° W 17:02:03 10° N
Milstar 3 3.3 16:50:06 19° WNW 16:57:56 75° SSW 17:04:51 10° ESE
Cosmos 1862 3.7 16:54:19 10° SSW 16:58:05 41° W 17:01:36 11° NNW
KM-V1 4.5 16:57:35 21° W 16:59:57 45° SW 17:02:33 10° SE
CZ-2C R/B 3.0 16:58:02 13° NNW 17:01:33 31° W 17:05:41 10° SW
Cosmos 2333 4.2 16:59:30 10° NNW 17:05:12 76° WSW 17:10:53 10° SSE
ARIANE 5 R/B 3.8 17:02:37 16° WNW 17:06:23 23° NNW 17:09:06 10° NE
Cosmos 1400 Rocket 3.1 17:03:43 14° NNW 17:06:43 43° W 17:10:26 10° S
Cosmos 1470 Rocket 3.5 17:05:09 10° S 17:09:35 87° W 17:14:01 10° N
ASTEX 1 4.2 17:05:39 10° SSW 17:10:02 31° W 17:14:24 10° NW
Cosmos 2322 3.9 17:05:27 11° NNW 17:10:40 52° WSW 17:16:11 10° S
Cosmos 1420 Rocket 4.4 17:07:17 10° S 17:12:35 71° ESE 17:17:48 10° NNE
SJ-12 4.3 17:08:35 10° NNE 17:12:38 69° ESE 17:16:42 10° S
Cosmos 1269 Rocket 4.1 17:09:48 10° NNW 17:14:58 58° WSW 17:20:10 10° S
CZ-3B R/B 4.4 17:10:07 10° NNW 17:17:02 19° NNE 17:22:11 10° ENE
Cosmos 1606 4.0 17:15:21 13° NW 17:17:56 23° W 17:21:05 10° SSW
RESURS DK-1 2.7 17:15:48 10° N 17:19:54 68° ENE 17:24:02 10° SSE
PSLV R/B 4.0 17:16:04 10° N 17:20:05 57° W 17:24:07 10° SSW
STARLINK-60 4.1 17:19:41 10° NNW 17:22:52 42° ENE 17:26:05 10° SE
Cosmos 1484 Rocket 2.9 17:19:32 10° N 17:23:14 49° W 17:26:56 10° SSW
FENGYUN 3A 3.9 17:17:56 10° NNE 17:23:17 76° ESE 17:28:41 10° S
Spelda 4.4 17:19:58 11° NW 17:23:22 29° NNE 17:33:47 10° ENE
Meteor 1-31 Rocket 4.1 17:20:55 10° NNW 17:23:49 20° W 17:26:43 10° SW
Okean O Rocket 2.4 17:22:34 10° NNE 17:26:55 59° ESE 17:31:19 10° S
SWIFT 3.1 17:23:47 10° NW 17:27:47 42° NNE 17:31:49 10° E
Cosmos 2360 Rocket 3.9 17:28:52 10° WNW 17:31:58 15° WSW 17:35:06 10° SW
Cosmos 2228 Rocket 4.4 17:30:37 10° NW 17:34:03 22° W 17:37:30 10° SSW
SWAS 4.4 17:31:01 10° SSW 17:35:18 76° WNW 17:39:34 10° NNE
Cosmos 1452 Rocket 3.5 17:30:33 10° SSW 17:35:50 86° WNW 17:41:04 10° N
Cosmos 2333 Rocket 2.4 17:30:17 10° NNW 17:35:52 56° WSW 17:41:26 10° S
